Flag for U.S.A. Weather past 2 weeks in Hollywood, California, U.S.A.

Now
90 °F

Sunny.


Feels Like: 89 °F
Forecast: 65 / 87 °F
Wind: 10 mph from South

Location: Burbank-Glendale-Pasadena Airport

Current Time: Aug 4, 2015 at 1:15:21 PM

Latest Report: Aug 4, 2015 at 12:53 PM


Visibility: 10 mi

Pressure: 29.88 "Hg

Humidity: 33%

Dew point: 57 °F

Location of HollywoodLocation

Historic Weather in Hollywood — Graph

°F

Hollywood temperature yesterday

Maximum temperature yesterday: 87 °F (at 12:53 PM)
Minimum temperature yesterday: 67 °F (at 5:53 AM)
Average temperature yesterday: 76 °F

Past Weeks' High & Low Weather Summary

 TemperatureHumidityPressure
High91 °F (Jul 25, 3:53 PM)90% (Jul 21, 2:53 AM)30.05 "Hg (Jul 21, 2:53 AM)
Low64 °F (Jul 28, 5:01 AM)26% (Jul 25, 3:53 PM)29.78 "Hg (Aug 2, 6:53 PM)
Average76 °F63%29.89 "Hg
* Reported Jul 20 11:53 AM — Aug 4 11:53 AM, Hollywood, Weather by CustomWeather, © 2015

Note: Actual official high and low records may vary slightly from our data, if they occured in-between our weather recording intervals... More about our weather records

Advertising

Hollywood weather history for previous 24 hours

 ConditionsComfort  
Time TempWeatherWind HumidityBarometerVisibility
11:53 AM
Tue, Aug 4
87 °FSunny.10 mph39%29.89 "Hg10 mi
10:53 AM84 °FSunny.8 mph45%29.89 "Hg10 mi
9:53 AM80 °FSunny.6 mph47%29.90 "Hg10 mi
8:53 AM76 °FSunny.No wind56%29.89 "Hg10 mi
7:53 AM73 °FSunny.No wind57%29.88 "Hg10 mi
6:53 AM70 °FClear.No wind61%29.87 "Hg10 mi
5:53 AM68 °FClear.No wind68%29.85 "Hg10 mi
4:53 AM69 °FClear.No wind66%29.85 "Hg10 mi
3:53 AM70 °FClear.No wind66%29.84 "Hg10 mi
2:53 AM71 °FClear.No wind66%29.84 "Hg10 mi
1:53 AM72 °FClear.No wind64%29.84 "Hg10 mi
12:53 AM72 °FClear.5 mph64%29.85 "Hg10 mi
11:53 PM
Mon, Aug 3
74 °FClear.5 mph60%29.84 "Hg10 mi
10:53 PM74 °FClear.3 mph62%29.84 "Hg10 mi
9:53 PM75 °FClear.5 mph58%29.85 "Hg10 mi
8:53 PM77 °FClear.3 mph54%29.83 "Hg10 mi
7:53 PM77 °FSunny.No wind52%29.82 "Hg10 mi
6:53 PM78 °FSunny.8 mph54%29.81 "Hg10 mi
5:53 PM83 °FSunny.10 mph48%29.81 "Hg10 mi
4:53 PM85 °FSunny.12 mph43%29.82 "Hg10 mi
3:53 PM87 °FSunny.12 mph43%29.81 "Hg10 mi
2:53 PM85 °FSunny.10 mph48%29.83 "Hg10 mi
1:53 PM85 °FSunny.10 mph48%29.85 "Hg10 mi
Weather by CustomWeather, © 2015

See weather overviewHow to use our weather pages